Location: Arborea
(39.7744°N, 8.5819°E)
Time: 03:20:45
(UTC+00:00)

SKYMED 2 - Pass Details

Date: 24 October 2021
Orbit: 621 x 623 km, 97.9° (Epoch: 27 November)

Event Time Altitude Azimuth Distance (km) Brightness Sun altitude
Rises 17:03:39 0° 19° (NNE) 2,910 6.7 -6.5°
Reaches altitude 10° 17:05:57 10° 27° (NNE) 1,999 5.8 -6.9°
Maximum altitude 17:10:06 43° 99° (E) 883 3.9 -7.7°
Drops below altitude 10° 17:14:12 10° 171° (S) 1,983 6.2 -8.5°
Sets 17:16:28 0° 178° (S) 2,884 7.1 -8.9°
